| time (UTC) | temp F | wind direction | speed knots | gust knots | rain 1hr in | rain 24hr in | rain mn in | humidity % | barometer mb |
| 20260902231829 | 96 | 249 | 0.0 | 0.9 | 0.00 | 0.00 | 0.00 | 58 | 1014.4 |
| 20260902231321 | 96 | 249 | 0.0 | 0.9 | 0.00 | 0.00 | 0.00 | 57 | 1014.4 |
| 20260902230815 | 95 | 250 | 0.0 | 0.9 | 0.00 | 0.00 | 0.00 | 59 | 1014.3 |
| 20260902230325 | 95 | 249 | 0.0 | 0.9 | 0.00 | 0.00 | 0.00 | 60 | 1014.4 |
| 20260902225815 | 94 | 249 | 0.0 | 1.7 | 0.00 | 0.00 | 0.00 | 60 | 1014.5 |
| 20260902225347 | 94 | 252 | 0.9 | 3.5 | 0.00 | 0.00 | 0.00 | 59 | 1014.6 |
| 20260902224818 | 94 | 251 | 0.9 | 3.5 | 0.00 | 0.00 | 0.00 | 57 | 1014.5 |
| 20260902224330 | 95 | 238 | 0.9 | 1.7 | 0.00 | 0.00 | 0.00 | 58 | 1014.5 |
| 20260902223821 | 95 | 238 | 0.9 | 2.6 | 0.00 | 0.00 | 0.00 | 56 | 1014.5 |
| 20260902222814 | 95 | 245 | 1.7 | 3.5 | 0.00 | 0.00 | 0.00 | 55 | 1014.5 |
| 20260902222325 | 95 | 255 | 1.7 | 3.5 | 0.00 | 0.00 | 0.00 | 55 | 1014.5 |
| 20260902221817 | 95 | 245 | 1.7 | 3.5 | 0.00 | 0.00 | 0.00 | 55 | 1014.6 |
| 20260902221325 | 95 | 233 | 1.7 | 3.5 | 0.00 | 0.00 | 0.00 | 55 | 1014.7 |
| 20260902220817 | 96 | 232 | 1.7 | 3.5 | 0.00 | 0.00 | 0.00 | 54 | 1014.7 |
| 20260902220328 | 96 | 259 | 1.7 | 3.5 | 0.00 | 0.00 | 0.00 | 54 | 1014.7 |
| 20260902215838 | 96 | 251 | 0.9 | 3.5 | 0.00 | 0.00 | 0.00 | 54 | 1014.7 |
| 20260902215329 | 96 | 232 | 1.7 | 3.5 | 0.00 | 0.00 | 0.00 | 56 | 1014.7 |
| 20260902214820 | 96 | 249 | 1.7 | 3.5 | 0.00 | 0.00 | 0.00 | 53 | 1014.7 |
| 20260902214316 | 96 | 257 | 0.9 | 3.5 | 0.00 | 0.00 | 0.00 | 54 | 1014.7 |
| 20260902213827 | 95 | 257 | 0.9 | 3.5 | 0.00 | 0.00 | 0.00 | 54 | 1014.7 |
| 20260902213337 | 94 | 245 | 2.6 | 6.1 | 0.00 | 0.00 | 0.00 | 56 | 1014.8 |
| 20260902212828 | 94 | 255 | 3.5 | 6.1 | 0.00 | 0.00 | 0.00 | 53 | 1014.8 |
| 20260902212320 | 94 | 264 | 3.5 | 5.2 | 0.00 | 0.00 | 0.00 | 55 | 1014.9 |
| 20260902211820 | 94 | 269 | 2.6 | 6.1 | 0.00 | 0.00 | 0.00 | 54 | 1014.9 |
| 20260902211349 | 94 | 247 | 4.3 | 6.1 | 0.00 | 0.00 | 0.00 | 52 | 1014.9 |
| 20260902210816 | 94 | 246 | 1.7 | 6.1 | 0.00 | 0.00 | 0.00 | 54 | 1014.9 |
| 20260902210330 | 94 | 259 | 4.3 | 7.0 | 0.00 | 0.00 | 0.00 | 54 | 1015.0 |
| 20260902205820 | 95 | 288 | 3.5 | 7.0 | 0.00 | 0.00 | 0.00 | 53 | 1015.0 |
| 20260902205314 | 95 | 263 | 2.6 | 5.2 | 0.00 | 0.00 | 0.00 | 51 | 1015.1 |
| 20260902204827 | 95 | 255 | 2.6 | 5.2 | 0.00 | 0.00 | 0.00 | 52 | 1015.1 |
| 20260902204324 | 95 | 269 | 3.5 | 5.2 | 0.00 | 0.00 | 0.00 | 53 | 1015.1 |
| 20260902203818 | 95 | 228 | 1.7 | 5.2 | 0.00 | 0.00 | 0.00 | 53 | 1015.1 |
| 20260902203331 | 95 | 259 | 2.6 | 5.2 | 0.00 | 0.00 | 0.00 | 55 | 1015.2 |
| 20260902202825 | 94 | 271 | 284.2 | 7.0 | 0.00 | 0.00 | 0.00 | 1015.1 | |
| 20260902202318 | 0 | 0.0 | 0.0 | 0.00 | 0.00 | 0.00 | 1015.2 | ||
| 20260902201851 | 0 | 0.0 | 0.0 | 0.00 | 0.00 | 0.00 | 1015.2 | ||
| 20260902201323 | 0 | 0.0 | 0.0 | 0.00 | 0.00 | 0.00 | 1015.3 | ||
| 20260902200316 | 94 | 250 | 1.7 | 6.1 | 0.00 | 0.00 | 0.00 | 55 | 1015.4 |
| 20260902195825 | 94 | 267 | 4.3 | 7.0 | 0.00 | 0.00 | 0.00 | 52 | 1015.4 |
| 20260902195322 | 95 | 269 | 4.3 | 10.4 | 0.00 | 0.00 | 0.00 | 52 | 1015.5 |
| 20260902194815 | 95 | 250 | 4.3 | 10.4 | 0.00 | 0.00 | 0.00 | 54 | 1015.5 |
| 20260902194327 | 95 | 250 | 3.5 | 6.1 | 0.00 | 0.00 | 0.00 | 54 | 1015.6 |
| 20260902193819 | 95 | 222 | 0.9 | 6.1 | 0.00 | 0.00 | 0.00 | 54 | 1015.6 |
| 20260902193313 | 94 | 262 | 3.5 | 7.0 | 0.00 | 0.00 | 0.00 | 52 | 1015.7 |
| 20260902192827 | 94 | 269 | 3.5 | 7.0 | 0.00 | 0.00 | 0.00 | 54 | 1015.7 |
| 20260902192319 | 95 | 267 | 4.3 | 7.0 | 0.00 | 0.00 | 0.00 | 52 | 1015.9 |
| 20260902191813 | 95 | 257 | 2.6 | 4.3 | 0.00 | 0.00 | 0.00 | 54 | 1015.9 |
| 20260902191331 | 95 | 250 | 2.6 | 4.3 | 0.00 | 0.00 | 0.00 | 53 | 1015.9 |
| 20260902190843 | 95 | 257 | 2.6 | 5.2 | 0.00 | 0.00 | 0.00 | 53 | 1016.0 |
| 20260902190314 | 94 | 244 | 2.6 | 6.1 | 0.00 | 0.00 | 0.00 | 53 | 1016.1 |
| 20260902185824 | 94 | 255 | 3.5 | 8.7 | 0.00 | 0.00 | 0.00 | 54 | 1016.2 |
| 20260902185337 | 94 | 280 | 4.3 | 8.7 | 0.00 | 0.00 | 0.00 | 53 | 1016.2 |
| 20260902184828 | 94 | 255 | 3.5 | 7.0 | 0.00 | 0.00 | 0.00 | 53 | 1016.2 |
| 20260902184321 | 93 | 278 | 5.2 | 7.8 | 0.00 | 0.00 | 0.00 | 53 | 1016.3 |
| 20260902183814 | 93 | 262 | 4.3 | 8.7 | 0.00 | 0.00 | 0.00 | 53 | 1016.3 |
| 20260902183328 | 93 | 195 | 5.2 | 9.6 | 0.00 | 0.00 | 0.00 | 55 | 1016.3 |
| 20260902182825 | 93 | 206 | 4.3 | 9.6 | 0.00 | 0.00 | 0.00 | 57 | 1016.3 |
| 20260902181819 | 93 | 266 | 2.6 | 7.8 | 0.00 | 0.00 | 0.00 | 55 | 1016.4 |
| 20260902180831 | 93 | 278 | 3.5 | 8.7 | 0.00 | 0.00 | 0.00 | 55 | 1016.4 |
| 20260902180324 | 93 | 270 | 5.2 | 8.7 | 0.00 | 0.00 | 0.00 | 56 | 1016.5 |
| 20260902175815 | 92 | 215 | 3.5 | 8.7 | 0.00 | 0.00 | 0.00 | 58 | 1016.5 |
| 20260902175328 | 92 | 202 | 3.5 | 5.2 | 0.00 | 0.00 | 0.00 | 57 | 1016.6 |
| 20260902174822 | 92 | 276 | 3.5 | 8.7 | 0.00 | 0.00 | 0.00 | 57 | 1016.6 |
| 20260902174318 | 93 | 279 | 3.5 | 6.1 | 0.00 | 0.00 | 0.00 | 56 | 1016.6 |
| 20260902173831 | 92 | 260 | 2.6 | 8.7 | 0.00 | 0.00 | 0.00 | 56 | 1016.7 |
| 20260902173324 | 92 | 262 | 4.3 | 8.7 | 0.00 | 0.00 | 0.00 | 57 | 1016.8 |
| 20260902172818 | 92 | 249 | 2.6 | 8.7 | 0.00 | 0.00 | 0.00 | 58 | 1016.8 |
| 20260902172353 | 92 | 255 | 3.5 | 7.8 | 0.00 | 0.00 | 0.00 | 59 | 1016.9 |
| 20260902171825 | 92 | 252 | 4.3 | 7.8 | 0.00 | 0.00 | 0.00 | 58 | 1016.9 |
| 20260902171318 | 92 | 301 | 4.3 | 6.1 | 0.00 | 0.00 | 0.00 | 58 | 1017.0 |
| 20260902170831 | 92 | 260 | 1.7 | 7.8 | 0.00 | 0.00 | 0.00 | 61 | 1017.0 |
| 20260902170325 | 91 | 226 | 4.3 | 7.8 | 0.00 | 0.00 | 0.00 | 61 | 1017.0 |
| 20260902165820 | 91 | 222 | 2.6 | 7.0 | 0.00 | 0.00 | 0.00 | 61 | 1017.0 |
| 20260902165313 | 91 | 269 | 4.3 | 8.7 | 0.00 | 0.00 | 0.00 | 60 | 1017.1 |
| 20260902164845 | 91 | 245 | 4.3 | 8.7 | 0.00 | 0.00 | 0.00 | 61 | 1017.2 |
| 20260902164317 | 91 | 256 | 5.2 | 7.8 | 0.00 | 0.00 | 0.00 | 61 | 1017.2 |
| 20260902163829 | 91 | 273 | 3.5 | 7.8 | 0.00 | 0.00 | 0.00 | 62 | 1017.2 |
| 20260902163322 | 91 | 284 | 0.9 | 7.8 | 0.00 | 0.00 | 0.00 | 61 | 1017.3 |
| 20260902162815 | 91 | 257 | 4.3 | 7.0 | 0.00 | 0.00 | 0.00 | 60 | 1017.4 |
| 20260902162329 | 91 | 256 | 2.6 | 6.1 | 0.00 | 0.00 | 0.00 | 62 | 1017.5 |
| 20260902161828 | 90 | 263 | 1.7 | 7.8 | 0.00 | 0.00 | 0.00 | 62 | 1017.5 |
| 20260902161340 | 90 | 245 | 3.5 | 7.8 | 0.00 | 0.00 | 0.00 | 62 | 1017.6 |
| 20260902160832 | 90 | 277 | 3.5 | 5.2 | 0.00 | 0.00 | 0.00 | 63 | 1017.6 |
| 20260902160325 | 90 | 233 | 3.5 | 5.2 | 0.00 | 0.00 | 0.00 | 63 | 1017.6 |
| 20260902155813 | 90 | 235 | 2.6 | 6.1 | 0.00 | 0.00 | 0.00 | 63 | 1017.6 |
| 20260902155346 | 90 | 293 | 2.6 | 7.0 | 0.00 | 0.00 | 0.00 | 62 | 1017.6 |
| 20260902154818 | 89 | 312 | 4.3 | 7.8 | 0.00 | 0.00 | 0.00 | 63 | 1017.7 |
| 20260902154431 | 89 | 260 | 3.5 | 7.8 | 0.00 | 0.00 | 0.00 | 63 | 1017.7 |
| 20260902153818 | 89 | 249 | 2.6 | 4.3 | 0.00 | 0.00 | 0.00 | 63 | 1017.7 |
| 20260902153330 | 88 | 271 | 2.6 | 7.0 | 0.00 | 0.00 | 0.00 | 64 | 1017.7 |
| 20260902152823 | 88 | 255 | 2.6 | 7.0 | 0.00 | 0.00 | 0.00 | 64 | 1017.7 |
| 20260902152319 | 88 | 253 | 3.5 | 7.0 | 0.00 | 0.00 | 0.00 | 63 | 1017.7 |
| 20260902151852 | 88 | 253 | 2.6 | 7.0 | 0.00 | 0.00 | 0.00 | 64 | 1017.6 |
| 20260902151343 | 88 | 278 | 3.5 | 6.1 | 0.00 | 0.00 | 0.00 | 64 | 1017.6 |
| 20260902150814 | 87 | 285 | 2.6 | 5.2 | 0.00 | 0.00 | 0.00 | 63 | 1017.6 |
| 20260902150328 | 87 | 267 | 1.7 | 5.2 | 0.00 | 0.00 | 0.00 | 64 | 1017.6 |
| 20260902145839 | 87 | 268 | 2.6 | 5.2 | 0.00 | 0.00 | 0.00 | 64 | 1017.6 |
| 20260902145351 | 86 | 264 | 2.6 | 5.2 | 0.00 | 0.00 | 0.00 | 65 | 1017.7 |
| 20260902144822 | 86 | 264 | 2.6 | 4.3 | 0.00 | 0.00 | 0.00 | 65 | 1017.8 |
| 20260902144315 | 86 | 328 | 1.7 | 5.2 | 0.00 | 0.00 | 0.00 | 65 | 1017.8 |
| 20260902143828 | 86 | 316 | 2.6 | 5.2 | 0.00 | 0.00 | 0.00 | 65 | 1017.8 |
| 20260902143322 | 86 | 296 | 3.5 | 5.2 | 0.00 | 0.00 | 0.00 | 65 | 1017.7 |
| 20260902142838 | 86 | 270 | 1.7 | 4.3 | 0.00 | 0.00 | 0.00 | 64 | 1017.7 |
| 20260902142351 | 86 | 233 | 0.9 | 1.7 | 0.00 | 0.00 | 0.00 | 64 | 1017.6 |
| 20260902141823 | 85 | 233 | 0.0 | 1.7 | 0.00 | 0.00 | 0.00 | 64 | 1017.6 |
| 20260902141316 | 85 | 246 | 0.9 | 1.7 | 0.00 | 0.00 | 0.00 | 64 | 1017.5 |
| 20260902140848 | 85 | 224 | 0.9 | 1.7 | 0.00 | 0.00 | 0.00 | 64 | 1017.5 |
| 20260902140320 | 84 | 224 | 0.0 | 1.7 | 0.00 | 0.00 | 0.00 | 63 | 1017.6 |
| 20260902135812 | 84 | 225 | 0.0 | 1.7 | 0.00 | 0.00 | 0.00 | 62 | 1017.6 |
| 20260902135326 | 83 | 252 | 0.0 | 1.7 | 0.00 | 0.00 | 0.00 | 63 | 1017.6 |
| 20260902134838 | 83 | 264 | 0.0 | 1.7 | 0.00 | 0.00 | 0.00 | 61 | 1017.7 |
| 20260902134330 | 82 | 264 | 0.0 | 1.7 | 0.00 | 0.00 | 0.00 | 60 | 1017.7 |
| 20260902133842 | 81 | 264 | 0.9 | 1.7 | 0.00 | 0.00 | 0.00 | 59 | 1017.8 |
| 20260902133337 | 80 | 264 | 0.9 | 2.6 | 0.00 | 0.00 | 0.00 | 59 | 1017.7 |
| 20260902132829 | 80 | 229 | 0.9 | 2.6 | 0.00 | 0.00 | 0.00 | 58 | 1017.7 |
| 20260902132323 | 79 | 233 | 0.0 | 1.7 | 0.00 | 0.00 | 0.00 | 57 | 1017.6 |
| 20260902131816 | 79 | 233 | 0.9 | 1.7 | 0.00 | 0.00 | 0.00 | 56 | 1017.7 |
| 20260902131330 | 78 | 233 | 0.0 | 1.7 | 0.00 | 0.00 | 0.00 | 55 | 1017.6 |
| 20260902130824 | 78 | 233 | 0.9 | 0.9 | 0.00 | 0.00 | 0.00 | 54 | 1017.7 |
| 20260902130317 | 77 | 233 | 0.0 | 0.9 | 0.00 | 0.00 | 0.00 | 53 | 1017.7 |
| 20260902125828 | 77 | 233 | 0.0 | 1.7 | 0.00 | 0.00 | 0.00 | 53 | 1017.7 |
| 20260902125342 | 76 | 233 | 0.9 | 1.7 | 0.00 | 0.00 | 0.00 | 52 | 1017.6 |
| 20260902124818 | 76 | 233 | 0.9 | 0.9 | 0.00 | 0.00 | 0.00 | 52 | 1017.6 |
| 20260902124331 | 75 | 233 | 0.0 | 0.9 | 0.00 | 0.00 | 0.00 | 52 | 1017.5 |
| 20260902123825 | 75 | 233 | 0.0 | 1.7 | 0.00 | 0.00 | 0.00 | 52 | 1017.5 |
| 20260902123318 | 74 | 233 | 0.9 | 1.7 | 0.00 | 0.00 | 0.00 | 53 | 1017.4 |
| 20260902122832 | 74 | 233 | 0.0 | 0.9 | 0.00 | 0.00 | 0.00 | 53 | 1017.4 |
| 20260902122345 | 74 | 233 | 0.0 | 0.9 | 0.00 | 0.00 | 0.00 | 54 | 1017.3 |
| 20260902121817 | 73 | 233 | 0.0 | 0.9 | 0.00 | 0.00 | 0.00 | 54 | 1017.2 |
| 20260902121349 | 72 | 233 | 0.0 | 0.9 | 0.00 | 0.00 | 0.00 | 55 | 1017.2 |
| 20260902120821 | 72 | 233 | 0.0 | 0.9 | 0.00 | 0.00 | 0.00 | 55 | 1017.2 |
| 20260902120319 | 72 | 233 | 0.0 | 0.9 | 0.00 | 0.00 | 0.00 | 55 | 1017.3 |
| 20260902115850 | 72 | 233 | 0.0 | 0.9 | 0.00 | 0.00 | 0.00 | 55 | 1017.2 |
| 20260902115343 | 71 | 233 | 0.0 | 0.9 | 0.00 | 0.00 | 0.00 | 56 | 1017.2 |
| 20260902114814 | 71 | 233 | 0.0 | 0.9 | 0.00 | 0.00 | 0.00 | 56 | 1017.1 |
| 20260902114328 | 71 | 233 | 0.0 | 0.9 | 0.00 | 0.00 | 0.00 | 56 | 1017.1 |
| 20260902113822 | 71 | 233 | 0.0 | 0.9 | 0.00 | 0.00 | 0.00 | 56 | 1017.0 |
| 20260902113316 | 71 | 233 | 0.0 | 0.9 | 0.00 | 0.00 | 0.00 | 56 | 1017.0 |
| 20260902112829 | 71 | 233 | 0.0 | 0.9 | 0.00 | 0.00 | 0.00 | 56 | 1016.9 |
| 20260902112323 | 71 | 233 | 0.0 | 0.9 | 0.00 | 0.00 | 0.00 | 56 | 1016.8 |
| 20260902111313 | 71 | 233 | 0.9 | 0.9 | 0.00 | 0.00 | 0.00 | 56 | 1016.7 |
| 20260902110826 | 71 | 233 | 0.0 | 0.9 | 0.00 | 0.00 | 0.00 | 56 | 1016.7 |
| 20260902110319 | 71 | 233 | 0.0 | 0.9 | 0.00 | 0.00 | 0.00 | 56 | 1016.7 |
| 20260902105849 | 70 | 233 | 0.9 | 0.9 | 0.00 | 0.00 | 0.00 | 56 | 1016.6 |
| 20260902105341 | 70 | 233 | 0.0 | 0.9 | 0.00 | 0.00 | 0.00 | 55 | 1016.6 |
| 20260902104813 | 70 | 233 | 0.0 | 0.9 | 0.00 | 0.00 | 0.00 | 55 | 1016.6 |
| 20260902104327 | 70 | 233 | 0.0 | 0.0 | 0.00 | 0.00 | 0.00 | 55 | 1016.6 |
| 20260902103820 | 70 | 233 | 0.0 | 0.9 | 0.00 | 0.00 | 0.00 | 55 | 1016.7 |
| 20260902103317 | 70 | 233 | 0.0 | 0.0 | 0.00 | 0.00 | 0.00 | 55 | 1016.6 |
| 20260902102830 | 70 | 233 | 0.0 | 0.0 | 0.00 | 0.00 | 0.00 | 55 | 1016.6 |
| 20260902102323 | 70 | 233 | 0.0 | 0.0 | 0.00 | 0.00 | 0.00 | 56 | 1016.6 |
| 20260902101837 | 70 | 233 | 0.0 | 0.0 | 0.00 | 0.00 | 0.00 | 56 | 1016.5 |
| 20260902101328 | 70 | 233 | 0.0 | 0.0 | 0.00 | 0.00 | 0.00 | 55 | 1016.5 |
| 20260902100821 | 70 | 233 | 0.0 | 0.0 | 0.00 | 0.00 | 0.00 | 55 | 1016.5 |
| 20260902100314 | 70 | 233 | 0.0 | 0.0 | 0.00 | 0.00 | 0.00 | 55 | 1016.5 |
| 20260902095824 | 70 | 233 | 0.0 | 0.0 | 0.00 | 0.00 | 0.00 | 55 | 1016.5 |
| 20260902095321 | 71 | 233 | 0.0 | 0.0 | 0.00 | 0.00 | 0.00 | 55 | 1016.4 |
| 20260902094834 | 71 | 233 | 0.0 | 0.0 | 0.00 | 0.00 | 0.00 | 55 | 1016.4 |
| 20260902094326 | 71 | 233 | 0.0 | 0.0 | 0.00 | 0.00 | 0.00 | 55 | 1016.3 |
| 20260902093839 | 71 | 233 | 0.0 | 0.0 | 0.00 | 0.00 | 0.00 | 55 | 1016.3 |
| 20260902093312 | 71 | 233 | 0.0 | 0.0 | 0.00 | 0.00 | 0.00 | 55 | 1016.2 |
| 20260902092825 | 71 | 233 | 0.0 | 0.9 | 0.00 | 0.00 | 0.00 | 55 | 1016.1 |
| 20260902092320 | 71 | 233 | 0.0 | 0.9 | 0.00 | 0.00 | 0.00 | 55 | 1016.3 |
| 20260902091814 | 71 | 233 | 0.0 | 0.0 | 0.00 | 0.00 | 0.00 | 55 | 1016.3 |
| 20260902091328 | 71 | 233 | 0.0 | 0.0 | 0.00 | 0.00 | 0.00 | 55 | 1016.3 |
| 20260902090841 | 71 | 233 | 0.0 | 0.0 | 0.00 | 0.00 | 0.00 | 55 | 1016.3 |
| 20260902090316 | 71 | 233 | 0.0 | 0.0 | 0.00 | 0.00 | 0.00 | 55 | 1016.2 |
| 20260902085827 | 71 | 233 | 0.0 | 0.0 | 0.00 | 0.00 | 0.00 | 54 | 1016.2 |
| 20260902085320 | 71 | 233 | 0.0 | 0.0 | 0.00 | 0.00 | 0.00 | 54 | 1016.1 |
| 20260902084813 | 71 | 233 | 0.0 | 0.0 | 0.00 | 0.00 | 0.00 | 54 | 1016.0 |
| 20260902084327 | 71 | 233 | 0.0 | 0.0 | 0.00 | 0.00 | 0.00 | 54 | 1016.0 |
| 20260902083841 | 71 | 233 | 0.0 | 0.0 | 0.00 | 0.00 | 0.00 | 54 | 1015.9 |
| 20260902083313 | 71 | 233 | 0.0 | 0.0 | 0.00 | 0.00 | 0.00 | 54 | 1015.8 |
| 20260902082848 | 71 | 233 | 0.0 | 0.0 | 0.00 | 0.00 | 0.00 | 54 | 1015.8 |
| 20260902082320 | 71 | 233 | 0.0 | 0.0 | 0.00 | 0.00 | 0.00 | 54 | 1015.8 |
| 20260902081817 | 72 | 233 | 0.0 | 0.0 | 0.00 | 0.00 | 0.00 | 54 | 1015.8 |
| 20260902081312 | 72 | 233 | 0.0 | 0.0 | 0.00 | 0.00 | 0.00 | 54 | 1015.8 |
| 20260902080825 | 72 | 233 | 0.0 | 0.0 | 0.00 | 0.00 | 0.00 | 54 | 1015.7 |
| 20260902080337 | 72 | 233 | 0.0 | 0.0 | 0.00 | 0.00 | 0.00 | 54 | 1015.7 |
| 20260902075846 | 72 | 233 | 0.0 | 0.0 | 0.00 | 0.00 | 0.00 | 54 | 1015.7 |
| 20260902075320 | 72 | 233 | 0.0 | 0.0 | 0.00 | 0.00 | 0.00 | 54 | 1015.6 |
| 20260902074814 | 72 | 233 | 0.0 | 0.0 | 0.00 | 0.00 | 0.00 | 54 | 1015.6 |
| 20260902074347 | 72 | 233 | 0.0 | 0.9 | 0.00 | 0.00 | 0.00 | 54 | 1015.6 |
| 20260902073818 | 72 | 233 | 0.0 | 0.9 | 0.00 | 0.00 | 0.00 | 54 | 1015.7 |
| 20260902073314 | 72 | 233 | 0.0 | 0.9 | 0.00 | 0.00 | 0.00 | 54 | 1015.7 |
| 20260902072827 | 72 | 233 | 0.0 | 0.9 | 0.00 | 0.00 | 0.00 | 54 | 1015.7 |
| 20260902072342 | 72 | 233 | 0.0 | 0.0 | 0.00 | 0.00 | 0.00 | 54 | 1015.6 |
| 20260902071815 | 72 | 233 | 0.0 | 0.0 | 0.00 | 0.00 | 0.00 | 54 | 1015.7 |
| 20260902071328 | 72 | 233 | 0.0 | 0.0 | 0.00 | 0.00 | 0.00 | 54 | 1015.6 |
| 20260902070822 | 72 | 233 | 0.0 | 0.0 | 0.00 | 0.00 | 0.00 | 54 | 1015.6 |
| 20260902070336 | 72 | 233 | 0.0 | 0.0 | 0.00 | 0.00 | 0.00 | 54 | 1015.6 |
| 20260902065826 | 72 | 233 | 0.0 | 0.0 | 0.00 | 0.00 | 0.00 | 54 | 1015.7 |
| 20260902065338 | 72 | 233 | 0.0 | 0.0 | 0.00 | 0.00 | 0.00 | 54 | 1015.7 |
| 20260902064830 | 72 | 233 | 0.0 | 0.0 | 0.00 | 0.00 | 0.00 | 54 | 1015.7 |
| 20260902064326 | 72 | 233 | 0.0 | 0.0 | 0.00 | 0.00 | 0.00 | 54 | 1015.6 |
| 20260902063819 | 72 | 233 | 0.0 | 0.0 | 0.00 | 0.00 | 0.00 | 54 | 1015.7 |
| 20260902063312 | 72 | 233 | 0.0 | 0.0 | 0.00 | 0.00 | 0.00 | 54 | 1015.7 |
| 20260902062845 | 72 | 233 | 0.0 | 0.0 | 0.00 | 0.00 | 0.00 | 53 | 1015.7 |
| 20260902062317 | 72 | 233 | 0.0 | 0.0 | 0.00 | 0.00 | 0.00 | 54 | 1015.7 |
| 20260902061830 | 72 | 233 | 0.0 | 0.0 | 0.00 | 0.00 | 0.00 | 53 | 1015.8 |
| 20260902061343 | 72 | 233 | 0.0 | 0.0 | 0.00 | 0.00 | 0.00 | 53 | 1015.7 |
| 20260902060816 | 72 | 233 | 0.0 | 0.0 | 0.00 | 0.00 | 0.00 | 53 | 1015.8 |
| 20260902060328 | 72 | 233 | 0.0 | 0.0 | 0.00 | 0.00 | 0.00 | 53 | 1015.8 |
| 20260902055824 | 73 | 233 | 0.0 | 0.0 | 0.00 | 0.00 | 0.00 | 53 | 1015.9 |
| 20260902055317 | 73 | 233 | 0.0 | 0.0 | 0.00 | 0.00 | 0.00 | 53 | 1015.9 |
| 20260902054830 | 73 | 233 | 0.0 | 0.0 | 0.00 | 0.00 | 0.00 | 53 | 1015.9 |
| 20260902054323 | 73 | 233 | 0.0 | 0.9 | 0.00 | 0.00 | 0.00 | 53 | 1015.9 |
| 20260902053816 | 73 | 233 | 0.0 | 0.9 | 0.00 | 0.00 | 0.00 | 53 | 1015.9 |
| 20260902053329 | 73 | 233 | 0.0 | 0.0 | 0.00 | 0.00 | 0.00 | 53 | 1015.9 |
| 20260902052842 | 74 | 233 | 0.0 | 0.9 | 0.00 | 0.00 | 0.00 | 53 | 1015.9 |
| 20260902052315 | 74 | 233 | 0.0 | 0.9 | 0.00 | 0.00 | 0.00 | 53 | 1015.9 |
| 20260902051850 | 74 | 233 | 0.0 | 0.9 | 0.00 | 0.00 | 0.00 | 53 | 1015.9 |
| 20260902051327 | 74 | 233 | 0.0 | 0.9 | 0.00 | 0.00 | 0.00 | 53 | 1015.9 |
| 20260902050822 | 74 | 233 | 0.0 | 0.9 | 0.00 | 0.00 | 0.00 | 53 | 1015.9 |
| 20260902050315 | 74 | 233 | 0.0 | 0.9 | 0.00 | 0.00 | 0.00 | 53 | 1015.9 |
| 20260902045827 | 74 | 233 | 0.0 | 0.0 | 0.00 | 0.00 | 0.00 | 53 | 1015.8 |
| 20260902045320 | 74 | 233 | 0.0 | 0.0 | 0.00 | 0.00 | 0.00 | 53 | 1015.9 |
| 20260902044813 | 74 | 233 | 0.0 | 0.0 | 0.00 | 0.00 | 0.00 | 53 | 1015.9 |
| 20260902044346 | 74 | 233 | 0.0 | 0.0 | 0.00 | 0.00 | 0.00 | 53 | 1015.8 |
| 20260902043820 | 74 | 233 | 0.0 | 0.9 | 0.00 | 0.00 | 0.00 | 53 | 1015.8 |
| 20260902043316 | 74 | 233 | 0.0 | 0.9 | 0.00 | 0.00 | 0.00 | 53 | 1015.8 |
| 20260902042829 | 74 | 233 | 0.0 | 0.0 | 0.00 | 0.00 | 0.00 | 53 | 1015.8 |
| 20260902042341 | 74 | 233 | 0.0 | 0.0 | 0.00 | 0.00 | 0.00 | 53 | 1015.8 |
| 20260902041813 | 74 | 233 | 0.0 | 0.0 | 0.00 | 0.00 | 0.00 | 53 | 1015.8 |
| 20260902041327 | 74 | 233 | 0.0 | 0.0 | 0.00 | 0.00 | 0.00 | 53 | 1015.8 |
| 20260902040821 | 74 | 233 | 0.0 | 0.0 | 0.00 | 0.00 | 0.00 | 53 | 1015.8 |
| 20260902040316 | 75 | 233 | 0.0 | 0.0 | 0.00 | 0.00 | 0.00 | 53 | 1015.8 |
| 20260902035827 | 75 | 233 | 0.0 | 0.0 | 0.00 | 0.00 | 0.00 | 53 | 1015.8 |
| 20260902035319 | 75 | 233 | 0.0 | 0.0 | 0.00 | 0.00 | 0.00 | 53 | 1015.8 |
| 20260902034818 | 75 | 233 | 0.0 | 0.0 | 0.00 | 0.00 | 0.00 | 53 | 1015.8 |
| 20260902034312 | 75 | 233 | 0.0 | 0.0 | 0.00 | 0.00 | 0.00 | 53 | 1015.8 |
| 20260902033825 | 75 | 233 | 0.0 | 0.0 | 0.00 | 0.00 | 0.00 | 53 | 1015.9 |
| 20260902033318 | 75 | 233 | 0.0 | 0.0 | 0.00 | 0.00 | 0.00 | 53 | 1015.8 |
| 20260902032813 | 75 | 233 | 0.0 | 0.0 | 0.00 | 0.00 | 0.00 | 54 | 1015.9 |
| 20260902032327 | 75 | 233 | 0.0 | 0.0 | 0.00 | 0.00 | 0.00 | 54 | 1015.8 |
| 20260902031839 | 76 | 233 | 0.0 | 0.0 | 0.00 | 0.00 | 0.00 | 53 | 1015.8 |
| 20260902031312 | 76 | 233 | 0.0 | 0.0 | 0.00 | 0.00 | 0.00 | 53 | 1015.8 |
| 20260902030829 | 76 | 233 | 0.0 | 0.0 | 0.00 | 0.00 | 0.00 | 54 | 1015.8 |
| 20260902030323 | 76 | 233 | 0.0 | 0.0 | 0.00 | 0.00 | 0.00 | 54 | 1015.8 |
| 20260902025834 | 76 | 233 | 0.0 | 0.0 | 0.00 | 0.00 | 0.00 | 54 | 1015.8 |
| 20260902025345 | 77 | 233 | 0.0 | 0.0 | 0.00 | 0.00 | 0.00 | 54 | 1015.8 |
| 20260902024817 | 77 | 233 | 0.0 | 0.0 | 0.00 | 0.00 | 0.00 | 54 | 1015.8 |
| 20260902024331 | 77 | 233 | 0.0 | 0.0 | 0.00 | 0.00 | 0.00 | 54 | 1015.9 |
| 20260902023824 | 77 | 233 | 0.0 | 0.0 | 0.00 | 0.00 | 0.00 | 54 | 1015.9 |
| 20260902023317 | 77 | 233 | 0.0 | 0.0 | 0.00 | 0.00 | 0.00 | 55 | 1015.9 |
| 20260902022850 | 77 | 233 | 0.0 | 0.9 | 0.00 | 0.00 | 0.00 | 55 | 1015.8 |
| 20260902022322 | 78 | 233 | 0.0 | 0.9 | 0.00 | 0.00 | 0.00 | 55 | 1015.8 |
| 20260902021820 | 78 | 233 | 0.0 | 0.9 | 0.00 | 0.00 | 0.00 | 55 | 1015.8 |
| 20260902021312 | 78 | 233 | 0.0 | 0.9 | 0.00 | 0.00 | 0.00 | 56 | 1015.7 |
| 20260902020824 | 78 | 233 | 0.0 | 0.9 | 0.00 | 0.00 | 0.00 | 56 | 1015.7 |
| 20260902020316 | 78 | 233 | 0.0 | 0.9 | 0.00 | 0.00 | 0.00 | 57 | 1015.6 |
| 20260902015847 | 79 | 233 | 0.0 | 0.0 | 0.00 | 0.00 | 0.00 | 57 | 1015.7 |
| 20260902015318 | 79 | 233 | 0.0 | 0.0 | 0.00 | 0.00 | 0.00 | 60 | 1015.7 |
| 20260902014833 | 79 | 233 | 0.0 | 0.9 | 0.00 | 0.00 | 0.00 | 61 | 1015.7 |
| 20260902014326 | 79 | 233 | 0.0 | 0.9 | 0.00 | 0.00 | 0.00 | 63 | 1015.6 |
| 20260902013820 | 79 | 233 | 0.0 | 0.9 | 0.00 | 0.00 | 0.00 | 64 | 1015.7 |
| 20260902013337 | 80 | 233 | 0.0 | 0.0 | 0.00 | 0.00 | 0.00 | 65 | 1015.7 |
| 20260902012830 | 80 | 233 | 0.0 | 0.0 | 0.00 | 0.00 | 0.00 | 67 | 1015.5 |
| 20260902012322 | 80 | 233 | 0.0 | 0.0 | 0.00 | 0.00 | 0.00 | 68 | 1015.5 |
| 20260902011814 | 81 | 233 | 0.0 | 0.0 | 0.00 | 0.00 | 0.00 | 68 | 1015.4 |
| 20260902011327 | 81 | 233 | 0.0 | 0.0 | 0.00 | 0.00 | 0.00 | 68 | 1015.4 |
| 20260902010820 | 81 | 233 | 0.0 | 0.0 | 0.00 | 0.00 | 0.00 | 68 | 1015.4 |
| 20260902010314 | 82 | 233 | 0.0 | 0.9 | 0.00 | 0.00 | 0.00 | 68 | 1015.3 |
| 20260902005825 | 82 | 233 | 0.0 | 0.9 | 0.00 | 0.00 | 0.00 | 68 | 1015.3 |
| 20260902005324 | 82 | 233 | 0.0 | 0.0 | 0.00 | 0.00 | 0.00 | 67 | 1015.2 |
| 20260902004816 | 83 | 233 | 0.0 | 0.0 | 0.00 | 0.00 | 0.00 | 67 | 1015.1 |
| 20260902004328 | 84 | 233 | 0.0 | 0.0 | 0.00 | 0.00 | 0.00 | 67 | 1015.1 |
| 20260902003822 | 84 | 233 | 0.0 | 0.9 | 0.00 | 0.00 | 0.00 | 68 | 1015.1 |
| 20260902003315 | 85 | 233 | 0.0 | 0.9 | 0.00 | 0.00 | 0.00 | 68 | 1015.1 |
| 20260902002828 | 85 | 233 | 0.0 | 0.0 | 0.00 | 0.00 | 0.00 | 68 | 1015.1 |
| 20260902002320 | 86 | 233 | 0.0 | 0.0 | 0.00 | 0.00 | 0.00 | 67 | 1015.0 |
| 20260902001834 | 87 | 233 | 0.0 | 0.0 | 0.00 | 0.00 | 0.00 | 66 | 1015.1 |
| 20260902001326 | 88 | 233 | 0.0 | 0.0 | 0.00 | 0.00 | 0.00 | 63 | 1015.1 |
| 20260902000845 | 90 | 233 | 0.0 | 0.0 | 0.00 | 0.00 | 0.00 | 61 | 1015.1 |
| 20260902000322 | 91 | 233 | 0.0 | 0.0 | 0.00 | 0.00 | 0.00 | 61 | 1015.1 |
| 20260901235827 | 92 | 233 | 0.0 | 0.0 | 0.00 | 0.00 | 0.00 | 60 | 1015.1 |
| 20260901235319 | 92 | 233 | 0.0 | 0.0 | 0.00 | 0.00 | 0.00 | 59 | 1015.0 |
| 20260901234814 | 93 | 233 | 0.0 | 0.9 | 0.00 | 0.00 | 0.00 | 59 | 1015.1 |
| 20260901234327 | 94 | 233 | 0.0 | 0.9 | 0.00 | 0.00 | 0.00 | 58 | 1015.1 |
| 20260901233839 | 95 | 233 | 0.0 | 0.0 | 0.00 | 0.00 | 0.00 | 57 | 1015.2 |
| 20260901233315 | 95 | 233 | 0.0 | 0.9 | 0.00 | 0.00 | 0.00 | 55 | 1015.3 |
| 20260901232823 | 96 | 233 | 0.0 | 0.9 | 0.00 | 0.00 | 0.00 | 55 | 1015.4 |
| 20260901232315 | 97 | 233 | 0.0 | 0.0 | 0.00 | 0.00 | 0.00 | 55 | 1015.3 |